Year,Month,Day,Hour,Minute,Value (Times are PST for temperature in C)
2012,02,26,00,00,2.90
2012,02,26,00,01,2.90
2012,02,26,00,02,2.90
2012,02,26,00,03,3.00
2012,02,26,00,04,3.00
2012,02,26,00,05,3.10
2012,02,26,00,06,3.10
2012,02,26,00,07,3.10
2012,02,26,00,08,3.10
2012,02,26,00,09,3.10
2012,02,26,00,10,3.00
2012,02,26,00,11,2.90
2012,02,26,00,12,2.90
2012,02,26,00,13,2.80
2012,02,26,00,14,2.80
2012,02,26,00,15,2.80
2012,02,26,00,16,2.80
2012,02,26,00,17,2.80
2012,02,26,00,18,2.80
2012,02,26,00,19,2.80
2012,02,26,00,20,2.80
2012,02,26,00,21,2.70
2012,02,26,00,22,2.70
2012,02,26,00,23,2.70
2012,02,26,00,24,2.70
2012,02,26,00,25,2.70
2012,02,26,00,26,2.70
2012,02,26,00,27,2.70
2012,02,26,00,28,2.70
2012,02,26,00,29,2.70
2012,02,26,00,30,2.80
2012,02,26,00,31,2.80
2012,02,26,00,32,3.00
2012,02,26,00,33,3.00
2012,02,26,00,34,3.10
2012,02,26,00,35,3.10
2012,02,26,00,36,3.10
2012,02,26,00,37,3.20
2012,02,26,00,38,3.30
2012,02,26,00,39,3.30
2012,02,26,00,40,3.40
2012,02,26,00,41,3.40
2012,02,26,00,42,3.50
2012,02,26,00,43,3.50
2012,02,26,00,44,3.50
2012,02,26,00,45,3.60
2012,02,26,00,46,3.50
2012,02,26,00,47,3.50
2012,02,26,00,48,3.40
2012,02,26,00,49,3.40
2012,02,26,00,50,3.40
2012,02,26,00,51,3.40
2012,02,26,00,52,3.40
2012,02,26,00,53,3.40
2012,02,26,00,54,3.40
2012,02,26,00,55,3.40
2012,02,26,00,56,3.40
2012,02,26,00,57,3.40
2012,02,26,00,58,3.40
2012,02,26,00,59,3.40
2012,02,26,01,00,3.40
2012,02,26,01,01,3.40
2012,02,26,01,02,3.40
2012,02,26,01,03,3.40
2012,02,26,01,04,3.40
2012,02,26,01,05,3.50
2012,02,26,01,06,3.50
2012,02,26,01,07,3.60
2012,02,26,01,08,3.60
2012,02,26,01,09,3.60
2012,02,26,01,10,3.60
2012,02,26,01,11,3.60
2012,02,26,01,12,3.60
2012,02,26,01,13,3.60
2012,02,26,01,14,3.60
2012,02,26,01,15,3.60
2012,02,26,01,16,3.60
2012,02,26,01,17,3.60
2012,02,26,01,18,3.60
2012,02,26,01,19,3.60
2012,02,26,01,20,3.70
2012,02,26,01,21,3.70
2012,02,26,01,22,3.70
2012,02,26,01,23,3.70
2012,02,26,01,24,3.70
2012,02,26,01,25,3.70
2012,02,26,01,26,3.70
2012,02,26,01,27,3.80
2012,02,26,01,28,3.80
2012,02,26,01,29,3.80
2012,02,26,01,30,3.80
2012,02,26,01,31,3.80
2012,02,26,01,32,3.80
2012,02,26,01,33,3.80
2012,02,26,01,34,3.80
2012,02,26,01,35,3.80
2012,02,26,01,36,3.80
2012,02,26,01,37,3.80
2012,02,26,01,38,3.80
2012,02,26,01,39,3.80
2012,02,26,01,40,3.80
2012,02,26,01,41,3.80
2012,02,26,01,42,3.80
2012,02,26,01,43,3.80
2012,02,26,01,44,3.80
2012,02,26,01,45,3.70
2012,02,26,01,46,3.70
2012,02,26,01,47,3.70
2012,02,26,01,48,3.70
2012,02,26,01,49,3.70
2012,02,26,01,50,3.70
2012,02,26,01,51,3.70
2012,02,26,01,52,3.70
2012,02,26,01,53,3.70
2012,02,26,01,54,3.70
2012,02,26,01,55,3.70
2012,02,26,01,56,3.70
2012,02,26,01,57,3.70
2012,02,26,01,58,3.70
2012,02,26,01,59,3.70
2012,02,26,02,00,3.70
2012,02,26,02,01,3.60
2012,02,26,02,02,3.60
2012,02,26,02,03,3.60
2012,02,26,02,04,3.60
2012,02,26,02,05,3.60
2012,02,26,02,06,3.60
2012,02,26,02,07,3.60
2012,02,26,02,08,3.50
2012,02,26,02,09,3.50
2012,02,26,02,10,3.50
2012,02,26,02,11,3.50
2012,02,26,02,12,3.40
2012,02,26,02,13,3.30
2012,02,26,02,14,3.30
2012,02,26,02,15,3.20
2012,02,26,02,16,3.10
2012,02,26,02,17,3.10
2012,02,26,02,18,3.00
2012,02,26,02,19,2.90
2012,02,26,02,20,2.90
2012,02,26,02,21,2.80
2012,02,26,02,22,2.70
2012,02,26,02,23,2.70
2012,02,26,02,24,2.70
2012,02,26,02,25,2.60
2012,02,26,02,26,2.50
2012,02,26,02,27,2.50
2012,02,26,02,28,2.40
2012,02,26,02,29,2.30
2012,02,26,02,30,2.20
2012,02,26,02,31,2.20
2012,02,26,02,32,2.10
2012,02,26,02,33,2.00
2012,02,26,02,34,1.90
2012,02,26,02,35,1.90
2012,02,26,02,36,1.80
2012,02,26,02,37,1.70
2012,02,26,02,38,1.70
2012,02,26,02,39,1.60
2012,02,26,02,40,1.60
2012,02,26,02,41,1.60
2012,02,26,02,42,1.60
2012,02,26,02,43,1.60
2012,02,26,02,44,1.60
2012,02,26,02,45,1.60
2012,02,26,02,46,1.60
2012,02,26,02,47,1.50
2012,02,26,02,48,1.50
2012,02,26,02,49,1.50
2012,02,26,02,50,1.50
2012,02,26,02,51,1.50
2012,02,26,02,52,1.50
2012,02,26,02,53,1.50
2012,02,26,02,54,1.50
2012,02,26,02,55,1.50
2012,02,26,02,56,1.60
2012,02,26,02,57,1.60
2012,02,26,02,58,1.60
2012,02,26,02,59,1.60
2012,02,26,03,00,1.60
2012,02,26,03,01,1.60
2012,02,26,03,02,1.60
2012,02,26,03,03,1.60
2012,02,26,03,04,1.60
2012,02,26,03,05,1.60
2012,02,26,03,06,1.50
2012,02,26,03,07,1.50
2012,02,26,03,08,1.50
2012,02,26,03,09,1.40
2012,02,26,03,10,1.40
2012,02,26,03,11,1.40
2012,02,26,03,12,1.40
2012,02,26,03,13,1.40
2012,02,26,03,14,1.30
2012,02,26,03,15,1.30
2012,02,26,03,16,1.30
2012,02,26,03,17,1.30
2012,02,26,03,18,1.30
2012,02,26,03,19,1.30
2012,02,26,03,20,1.30
2012,02,26,03,21,1.20
2012,02,26,03,22,1.20
2012,02,26,03,23,1.10
2012,02,26,03,24,1.10
2012,02,26,03,25,1.10
2012,02,26,03,26,1.00
2012,02,26,03,27,1.00
2012,02,26,03,28,0.90
2012,02,26,03,29,0.90
2012,02,26,03,30,0.90
2012,02,26,03,31,0.80
2012,02,26,03,32,0.80
2012,02,26,03,33,0.70
2012,02,26,03,34,0.70
2012,02,26,03,35,0.70
2012,02,26,03,36,0.60
2012,02,26,03,37,0.60
2012,02,26,03,38,0.60
2012,02,26,03,39,0.50
2012,02,26,03,40,0.40
2012,02,26,03,41,0.40
2012,02,26,03,42,0.40
2012,02,26,03,43,0.40
2012,02,26,03,44,0.30
2012,02,26,03,45,0.30
2012,02,26,03,46,0.30
2012,02,26,03,47,0.30
2012,02,26,03,48,0.20
2012,02,26,03,49,0.20
2012,02,26,03,50,0.20
2012,02,26,03,51,0.20
2012,02,26,03,52,0.20
2012,02,26,03,53,0.10
2012,02,26,03,54,0.10
2012,02,26,03,55,0.10
2012,02,26,03,56,0.10
2012,02,26,03,57,0.10
2012,02,26,03,58,0.10
2012,02,26,03,59,0.10
2012,02,26,04,00,0.10
2012,02,26,04,01,0.10
2012,02,26,04,02,0.10
2012,02,26,04,03,0.10
2012,02,26,04,04,0.20
2012,02,26,04,08,0.30
2012,02,26,04,12,0.50
2012,02,26,04,13,0.60
2012,02,26,04,14,0.60
2012,02,26,04,15,0.60
2012,02,26,04,16,0.60
2012,02,26,04,17,0.70
2012,02,26,04,18,0.70
2012,02,26,04,19,0.70
2012,02,26,04,20,0.70
2012,02,26,04,21,0.80
2012,02,26,04,22,0.80
2012,02,26,04,23,0.80
2012,02,26,04,25,0.80
2012,02,26,04,28,0.80
2012,02,26,04,31,0.90
2012,02,26,04,33,0.90
2012,02,26,04,34,0.90
2012,02,26,04,35,0.90
2012,02,26,04,36,0.90
2012,02,26,04,37,0.90
2012,02,26,04,38,0.90
2012,02,26,04,39,0.90
2012,02,26,04,40,0.80
2012,02,26,04,41,0.80
2012,02,26,04,42,0.70
2012,02,26,04,43,0.70
2012,02,26,04,44,0.70
2012,02,26,04,45,0.60
2012,02,26,04,46,0.60
2012,02,26,04,47,0.60
2012,02,26,04,48,0.60
2012,02,26,04,49,0.50
2012,02,26,04,50,0.50
2012,02,26,04,51,0.40
2012,02,26,04,52,0.40
2012,02,26,04,53,0.40
2012,02,26,04,54,0.30
2012,02,26,04,55,0.30
2012,02,26,04,56,0.30
2012,02,26,04,57,0.30
2012,02,26,04,58,0.20
2012,02,26,04,59,0.20
2012,02,26,05,00,0.20
2012,02,26,05,01,0.10
2012,02,26,05,02,0.10
2012,02,26,05,03,0.00
2012,02,26,05,04,-0.10
2012,02,26,05,05,-0.10
2012,02,26,05,06,-0.10
2012,02,26,05,07,-0.20
2012,02,26,05,08,-0.20
2012,02,26,05,09,-0.20
2012,02,26,05,10,-0.30
2012,02,26,05,11,-0.30
2012,02,26,05,12,-0.30
2012,02,26,05,13,-0.40
2012,02,26,05,14,-0.40
2012,02,26,05,15,-0.40
2012,02,26,05,16,-0.50
2012,02,26,05,17,-0.60
2012,02,26,05,18,-0.60
2012,02,26,05,19,-0.60
2012,02,26,05,20,-0.60
2012,02,26,05,21,-0.60
2012,02,26,05,22,-0.60
2012,02,26,05,23,-0.70
2012,02,26,05,24,-0.70
2012,02,26,05,25,-0.70
2012,02,26,05,26,-0.70
2012,02,26,05,27,-0.80
2012,02,26,05,28,-0.80
2012,02,26,05,29,-0.80
2012,02,26,05,30,-0.90
2012,02,26,05,31,-0.90
2012,02,26,05,32,-0.90
2012,02,26,05,33,-1.00
2012,02,26,05,34,-1.00
2012,02,26,05,35,-1.00
2012,02,26,05,36,-1.10
2012,02,26,05,37,-1.10
2012,02,26,05,38,-1.10
2012,02,26,05,39,-1.10
2012,02,26,05,40,-1.10
2012,02,26,05,41,-1.10
2012,02,26,05,42,-1.10
2012,02,26,05,43,-1.20
2012,02,26,05,44,-1.20
2012,02,26,05,45,-1.20
2012,02,26,05,46,-1.20
2012,02,26,05,47,-1.10
2012,02,26,05,48,-1.10
2012,02,26,05,49,-1.10
2012,02,26,05,50,-1.10
2012,02,26,05,51,-1.10
2012,02,26,05,52,-1.10
2012,02,26,05,53,-1.10
2012,02,26,05,54,-1.10
2012,02,26,05,55,-1.00
2012,02,26,05,56,-1.00
2012,02,26,05,57,-1.00
2012,02,26,05,58,-1.00
2012,02,26,05,59,-1.00
2012,02,26,06,00,-1.00
2012,02,26,06,01,-1.00
2012,02,26,06,02,-1.00
2012,02,26,06,03,-1.00
2012,02,26,06,04,-1.00
2012,02,26,06,05,-1.00
2012,02,26,06,06,-1.00
2012,02,26,06,07,-1.00
2012,02,26,06,08,-1.00
2012,02,26,06,09,-1.00
2012,02,26,06,10,-1.00
2012,02,26,06,11,-1.00
2012,02,26,06,12,-1.00
2012,02,26,06,13,-1.00
2012,02,26,06,14,-0.90
2012,02,26,06,15,-0.90
2012,02,26,06,16,-0.90
2012,02,26,06,17,-0.90
2012,02,26,06,18,-0.90
2012,02,26,06,19,-0.90
2012,02,26,06,20,-0.90
2012,02,26,06,21,-0.90
2012,02,26,06,22,-0.90
2012,02,26,06,23,-0.90
2012,02,26,06,24,-0.90
2012,02,26,06,25,-0.90
2012,02,26,06,26,-0.90
2012,02,26,06,27,-0.90
2012,02,26,06,28,-0.90
2012,02,26,06,29,-0.90
2012,02,26,06,30,-0.90
2012,02,26,06,31,-0.90
2012,02,26,06,32,-0.90
2012,02,26,06,33,-0.90
2012,02,26,06,34,-1.00
2012,02,26,06,35,-1.00
2012,02,26,06,36,-1.00
2012,02,26,06,37,-1.10
2012,02,26,06,38,-1.10
2012,02,26,06,39,-1.10
2012,02,26,06,40,-1.10
2012,02,26,06,41,-1.10
2012,02,26,06,42,-1.20
2012,02,26,06,43,-1.20
2012,02,26,06,44,-1.20
2012,02,26,06,45,-1.20
2012,02,26,06,46,-1.30
2012,02,26,06,47,-1.30
2012,02,26,06,48,-1.30
2012,02,26,06,49,-1.30
2012,02,26,06,50,-1.40
2012,02,26,06,51,-1.40
2012,02,26,06,52,-1.40
2012,02,26,06,53,-1.40
2012,02,26,06,54,-1.40
2012,02,26,06,55,-1.50
2012,02,26,06,56,-1.50
2012,02,26,06,57,-1.50
2012,02,26,06,58,-1.60
2012,02,26,06,59,-1.60
2012,02,26,07,00,-1.60
2012,02,26,07,01,-1.60
2012,02,26,07,02,-1.60
2012,02,26,07,03,-1.70
2012,02,26,07,04,-1.70
2012,02,26,07,05,-1.80
2012,02,26,07,06,-1.80
2012,02,26,07,07,-1.80
2012,02,26,07,08,-1.80
2012,02,26,07,09,-1.90
2012,02,26,07,10,-1.90
2012,02,26,07,11,-1.90
2012,02,26,07,12,-1.90
2012,02,26,07,13,-1.90
2012,02,26,07,14,-1.90
2012,02,26,07,15,-1.90
2012,02,26,07,16,-1.90
2012,02,26,07,17,-1.90
2012,02,26,07,18,-1.90
2012,02,26,07,19,-1.90
2012,02,26,07,20,-1.90
2012,02,26,07,21,-1.90
2012,02,26,07,22,-1.90
2012,02,26,07,23,-1.90
2012,02,26,07,24,-1.90
2012,02,26,07,25,-1.90
2012,02,26,07,26,-1.90
2012,02,26,07,27,-1.90
2012,02,26,07,28,-2.00
2012,02,26,07,29,-2.00
2012,02,26,07,30,-2.00
2012,02,26,07,31,-2.00
2012,02,26,07,32,-2.00
2012,02,26,07,33,-2.00
2012,02,26,07,34,-2.00
2012,02,26,07,35,-2.00
2012,02,26,07,36,-1.90
2012,02,26,07,37,-1.90
2012,02,26,07,38,-1.90
2012,02,26,07,39,-1.90
2012,02,26,07,40,-1.90
2012,02,26,07,41,-1.90
2012,02,26,07,42,-1.90
2012,02,26,07,43,-1.90
2012,02,26,07,44,-1.80
2012,02,26,07,45,-1.80
2012,02,26,07,46,-1.80
2012,02,26,07,47,-1.80
2012,02,26,07,48,-1.80
2012,02,26,07,49,-1.80
2012,02,26,07,50,-1.70
2012,02,26,07,51,-1.70
2012,02,26,07,52,-1.60
2012,02,26,07,53,-1.50
2012,02,26,07,54,-1.50
2012,02,26,07,55,-1.40
2012,02,26,07,56,-1.30
2012,02,26,07,57,-1.20
2012,02,26,07,58,-1.20
2012,02,26,07,59,-1.10
2012,02,26,08,00,-1.00
2012,02,26,08,01,-0.90
2012,02,26,08,02,-0.80
2012,02,26,08,03,-0.70
2012,02,26,08,04,-0.70
2012,02,26,08,05,-0.60
2012,02,26,08,06,-0.50
2012,02,26,08,07,-0.40
2012,02,26,08,08,-0.30
2012,02,26,08,09,-0.30
2012,02,26,08,10,-0.20
2012,02,26,08,11,-0.10
2012,02,26,08,12,-0.10
2012,02,26,08,13,0.00
2012,02,26,08,14,0.10
2012,02,26,08,15,0.20
2012,02,26,08,16,0.30
2012,02,26,08,17,0.40
2012,02,26,08,18,0.50
2012,02,26,08,19,0.60
2012,02,26,08,20,0.80
2012,02,26,08,21,0.90
2012,02,26,08,22,1.00
2012,02,26,08,23,1.10
2012,02,26,08,24,1.10
2012,02,26,08,25,1.20
2012,02,26,08,26,1.30
2012,02,26,08,27,1.30
2012,02,26,08,28,1.30
2012,02,26,08,29,1.30
2012,02,26,08,30,1.40
2012,02,26,08,31,1.50
2012,02,26,08,32,1.60
2012,02,26,08,33,1.60
2012,02,26,08,34,1.70
2012,02,26,08,35,1.80
2012,02,26,08,36,1.90
2012,02,26,08,37,2.00
2012,02,26,08,38,2.10
2012,02,26,08,39,2.10
2012,02,26,08,40,2.10
2012,02,26,08,41,2.20
2012,02,26,08,42,2.30
2012,02,26,08,43,2.30
2012,02,26,08,44,2.40
2012,02,26,08,45,2.50
2012,02,26,08,46,2.60
2012,02,26,08,47,2.70
2012,02,26,08,48,2.80
2012,02,26,08,49,2.90
2012,02,26,08,50,3.00
2012,02,26,08,51,3.20
2012,02,26,08,52,3.20
2012,02,26,08,53,3.20
2012,02,26,08,54,3.30
2012,02,26,08,55,3.30
2012,02,26,08,56,3.30
2012,02,26,08,57,3.30
2012,02,26,08,58,3.30
2012,02,26,08,59,3.30
2012,02,26,09,00,3.30
2012,02,26,09,01,3.30
2012,02,26,09,02,3.30
2012,02,26,09,03,3.30
2012,02,26,09,04,3.40
2012,02,26,09,05,3.40
2012,02,26,09,06,3.40
2012,02,26,09,07,3.40
2012,02,26,09,08,3.40
2012,02,26,09,09,3.50
2012,02,26,09,10,3.50
2012,02,26,09,11,3.60
2012,02,26,09,12,3.70
2012,02,26,09,13,3.80
2012,02,26,09,14,3.90
2012,02,26,09,15,4.00
2012,02,26,09,16,4.00
2012,02,26,09,17,4.00
2012,02,26,09,18,4.10
2012,02,26,09,19,4.10
2012,02,26,09,20,4.20
2012,02,26,09,21,4.20
2012,02,26,09,22,4.30
2012,02,26,09,23,4.30
2012,02,26,09,24,4.30
2012,02,26,09,25,4.30
2012,02,26,09,26,4.30
2012,02,26,09,27,4.40
2012,02,26,09,28,4.40
2012,02,26,09,29,4.40
2012,02,26,09,30,4.40
2012,02,26,09,31,4.50
2012,02,26,09,32,4.40
2012,02,26,09,33,4.40
2012,02,26,09,34,4.40
2012,02,26,09,35,4.30
2012,02,26,09,36,4.30
2012,02,26,09,37,4.40
2012,02,26,09,38,4.40
2012,02,26,09,39,4.40
2012,02,26,09,40,4.40
2012,02,26,09,41,4.40
2012,02,26,09,42,4.50
2012,02,26,09,43,4.40
2012,02,26,09,44,4.50
2012,02,26,09,45,4.50
2012,02,26,09,46,4.50
2012,02,26,09,47,4.50
2012,02,26,09,48,4.50
2012,02,26,09,49,4.60
2012,02,26,09,50,4.60
2012,02,26,09,51,4.70
2012,02,26,09,52,4.80
2012,02,26,09,53,4.80
2012,02,26,09,54,4.80
2012,02,26,09,55,4.90
2012,02,26,09,56,4.90
2012,02,26,09,57,4.90
2012,02,26,09,58,4.90
2012,02,26,09,59,4.90
2012,02,26,10,00,4.80
2012,02,26,10,01,4.80
2012,02,26,10,02,4.80
2012,02,26,10,03,4.80
2012,02,26,10,04,4.70
2012,02,26,10,05,4.70
2012,02,26,10,06,4.70
2012,02,26,10,07,4.70
2012,02,26,10,08,4.70
2012,02,26,10,09,4.70
2012,02,26,10,10,4.70
2012,02,26,10,11,4.80
2012,02,26,10,12,4.80
2012,02,26,10,13,4.90
2012,02,26,10,14,4.90
2012,02,26,10,15,4.90
2012,02,26,10,16,4.90
2012,02,26,10,17,4.90
2012,02,26,10,18,4.90
2012,02,26,10,19,5.00
2012,02,26,10,20,5.00
2012,02,26,10,21,4.90
2012,02,26,10,22,4.90
2012,02,26,10,23,4.90
2012,02,26,10,24,4.90
2012,02,26,10,25,4.80
2012,02,26,10,26,4.80
2012,02,26,10,27,4.80
2012,02,26,10,28,4.90
2012,02,26,10,29,4.90
2012,02,26,10,30,5.00
2012,02,26,10,31,5.00
2012,02,26,10,32,5.10
2012,02,26,10,33,5.10
2012,02,26,10,34,5.20
2012,02,26,10,35,5.20
2012,02,26,10,36,5.20
2012,02,26,10,37,5.20
2012,02,26,10,38,5.30
2012,02,26,10,39,5.30
2012,02,26,10,40,5.30
2012,02,26,10,41,5.30
2012,02,26,10,42,5.30
2012,02,26,10,43,5.30
2012,02,26,10,44,5.30
2012,02,26,10,45,5.40
2012,02,26,10,46,5.40
2012,02,26,10,47,5.40
2012,02,26,10,48,5.50
2012,02,26,10,49,5.60
2012,02,26,10,50,5.60
2012,02,26,10,51,5.70
2012,02,26,10,52,5.70
2012,02,26,10,53,5.80
2012,02,26,10,54,5.80
2012,02,26,10,55,5.80
2012,02,26,10,56,5.80
2012,02,26,10,57,5.90
2012,02,26,10,58,5.90
2012,02,26,10,59,5.80
2012,02,26,11,00,5.80
2012,02,26,11,01,5.80
2012,02,26,11,02,5.70
2012,02,26,11,03,5.60
2012,02,26,11,04,5.50
2012,02,26,11,05,5.40
2012,02,26,11,06,5.30
2012,02,26,11,07,5.30
2012,02,26,11,08,5.30
2012,02,26,11,09,5.30
2012,02,26,11,10,5.30
2012,02,26,11,11,5.20
2012,02,26,11,12,5.20
2012,02,26,11,13,5.20
2012,02,26,11,14,5.10
2012,02,26,11,15,5.00
2012,02,26,11,16,5.00
2012,02,26,11,17,4.90
2012,02,26,11,18,4.90
2012,02,26,11,19,4.90
2012,02,26,11,20,4.80
2012,02,26,11,21,4.80
2012,02,26,11,22,4.80
2012,02,26,11,23,4.80
2012,02,26,11,24,4.80
2012,02,26,11,25,4.70
2012,02,26,11,26,4.70
2012,02,26,11,27,4.70
2012,02,26,11,28,4.70
2012,02,26,11,29,4.60
2012,02,26,11,30,4.60
2012,02,26,11,31,4.50
2012,02,26,11,32,4.40
2012,02,26,11,33,4.30
2012,02,26,11,34,4.30
2012,02,26,11,35,4.10
2012,02,26,11,36,4.00
2012,02,26,11,37,3.90
2012,02,26,11,38,3.80
2012,02,26,11,39,3.80
2012,02,26,11,40,3.70
2012,02,26,11,41,3.60
2012,02,26,11,42,3.60
2012,02,26,11,43,3.60
2012,02,26,11,44,3.60
2012,02,26,11,45,3.60
2012,02,26,11,46,3.50
2012,02,26,11,47,3.40
2012,02,26,11,48,3.30
2012,02,26,11,49,3.20
2012,02,26,11,50,3.10
2012,02,26,11,51,3.00
2012,02,26,11,52,2.90
2012,02,26,11,53,2.80
2012,02,26,11,54,2.80
2012,02,26,11,55,2.70
2012,02,26,11,56,2.70
2012,02,26,11,57,2.70
2012,02,26,11,58,2.70
2012,02,26,11,59,2.70
2012,02,26,12,00,2.70
2012,02,26,12,01,2.70
2012,02,26,12,02,2.70
2012,02,26,12,03,2.70
2012,02,26,12,04,2.60
2012,02,26,12,05,2.60
2012,02,26,12,06,2.60
2012,02,26,12,07,2.60
2012,02,26,12,08,2.60
2012,02,26,12,09,2.70
2012,02,26,12,10,2.70
2012,02,26,12,11,2.70
2012,02,26,12,12,2.80
2012,02,26,12,13,2.80
2012,02,26,12,14,2.90
2012,02,26,12,15,2.90
2012,02,26,12,16,3.00
2012,02,26,12,17,3.10
2012,02,26,12,18,3.10
2012,02,26,12,19,3.20
2012,02,26,12,20,3.20
2012,02,26,12,21,3.20
2012,02,26,12,22,3.30
2012,02,26,12,23,3.30
2012,02,26,12,24,3.40
2012,02,26,12,25,3.40
2012,02,26,12,26,3.50
2012,02,26,12,27,3.60
2012,02,26,12,28,3.70
2012,02,26,12,29,3.70
2012,02,26,12,30,3.80
2012,02,26,12,31,3.80
2012,02,26,12,32,3.80
2012,02,26,12,33,3.90
2012,02,26,12,34,3.90
2012,02,26,12,35,4.00
2012,02,26,12,36,4.00
2012,02,26,12,37,4.10
2012,02,26,12,38,4.10
2012,02,26,12,39,4.20
2012,02,26,12,40,4.20
2012,02,26,12,41,4.20
2012,02,26,12,42,4.20
2012,02,26,12,43,4.20
2012,02,26,12,44,4.30
2012,02,26,12,45,4.30
2012,02,26,12,46,4.30
2012,02,26,12,47,4.30
2012,02,26,12,48,4.30
2012,02,26,12,49,4.30
2012,02,26,12,50,4.30
2012,02,26,12,51,4.30
2012,02,26,12,52,4.30
2012,02,26,12,53,4.30
2012,02,26,12,54,4.30
2012,02,26,12,55,4.20
2012,02,26,12,56,4.20
2012,02,26,12,57,4.20
2012,02,26,12,58,4.20
2012,02,26,12,59,4.30
2012,02,26,13,00,4.30
2012,02,26,13,01,4.30
2012,02,26,13,02,4.20
2012,02,26,13,03,4.20
2012,02,26,13,04,4.20
2012,02,26,13,05,4.30
2012,02,26,13,06,4.30
2012,02,26,13,07,4.20
2012,02,26,13,08,4.30
2012,02,26,13,09,4.30
2012,02,26,13,10,4.40
2012,02,26,13,11,4.50
2012,02,26,13,12,4.50
2012,02,26,13,13,4.50
2012,02,26,13,14,4.60
2012,02,26,13,15,4.60
2012,02,26,13,16,4.60
2012,02,26,13,17,4.60
2012,02,26,13,18,4.50
2012,02,26,13,19,4.40
2012,02,26,13,20,4.40
2012,02,26,13,21,4.40
2012,02,26,13,22,4.40
2012,02,26,13,23,4.40
2012,02,26,13,24,4.50
2012,02,26,13,25,4.50
2012,02,26,13,26,4.60
2012,02,26,13,27,4.60
2012,02,26,13,28,4.60
2012,02,26,13,29,4.60
2012,02,26,13,30,4.50
2012,02,26,13,31,4.60
2012,02,26,13,32,4.60
2012,02,26,13,33,4.60
2012,02,26,13,34,4.50
2012,02,26,13,35,4.50
2012,02,26,13,36,4.40
2012,02,26,13,37,4.40
2012,02,26,13,38,4.40
2012,02,26,13,39,4.40
2012,02,26,13,40,4.40
2012,02,26,13,41,4.30
2012,02,26,13,42,4.30
2012,02,26,13,43,4.30
2012,02,26,13,44,4.30
2012,02,26,13,45,4.30
2012,02,26,13,46,4.30
2012,02,26,13,47,4.30
2012,02,26,13,48,4.30
2012,02,26,13,49,4.30
2012,02,26,13,50,4.30
2012,02,26,13,51,4.40
2012,02,26,13,52,4.40
2012,02,26,13,53,4.40
2012,02,26,13,54,4.40
2012,02,26,13,55,4.40
2012,02,26,13,56,4.50
2012,02,26,13,57,4.50
2012,02,26,13,58,4.60
2012,02,26,13,59,4.60
2012,02,26,14,00,4.70
2012,02,26,14,01,4.70
2012,02,26,14,02,4.80
2012,02,26,14,03,4.80
2012,02,26,14,04,4.80
2012,02,26,14,05,4.80
2012,02,26,14,06,4.80
2012,02,26,14,07,4.80
2012,02,26,14,08,4.80
2012,02,26,14,09,4.80
2012,02,26,14,10,4.80
2012,02,26,14,11,4.80
2012,02,26,14,12,4.70
2012,02,26,14,13,4.70
2012,02,26,14,14,4.60
2012,02,26,14,15,4.60
2012,02,26,14,16,4.50
2012,02,26,14,17,4.40
2012,02,26,14,18,4.40
2012,02,26,14,19,4.30
2012,02,26,14,20,4.30
2012,02,26,14,21,4.30
2012,02,26,14,22,4.30
2012,02,26,14,23,4.30
2012,02,26,14,24,4.30
2012,02,26,14,25,4.30
2012,02,26,14,26,4.30
2012,02,26,14,27,4.30
2012,02,26,14,28,4.40
2012,02,26,14,29,4.40
2012,02,26,14,30,4.50
2012,02,26,14,31,4.60
2012,02,26,14,32,4.70
2012,02,26,14,33,4.80
2012,02,26,14,34,4.80
2012,02,26,14,35,4.80
2012,02,26,14,36,4.80
2012,02,26,14,37,4.80
2012,02,26,14,38,4.80
2012,02,26,14,39,4.80
2012,02,26,14,40,4.90
2012,02,26,14,41,4.90
2012,02,26,14,42,5.00
2012,02,26,14,43,5.10
2012,02,26,14,44,5.10
2012,02,26,14,45,5.20
2012,02,26,14,46,5.10
2012,02,26,14,47,5.20
2012,02,26,14,48,5.20
2012,02,26,14,49,5.20
2012,02,26,14,50,5.10
2012,02,26,14,51,4.90
2012,02,26,14,52,4.80
2012,02,26,14,53,4.60
2012,02,26,14,54,4.50
2012,02,26,14,55,4.50
2012,02,26,14,56,4.40
2012,02,26,14,57,4.30
2012,02,26,14,58,4.30
2012,02,26,14,59,4.20
2012,02,26,15,00,4.20
2012,02,26,15,01,4.20
2012,02,26,15,02,4.20
2012,02,26,15,03,4.20
2012,02,26,15,04,4.20
2012,02,26,15,05,4.30
2012,02,26,15,06,4.40
2012,02,26,15,07,4.40
2012,02,26,15,08,4.50
2012,02,26,15,09,4.50
2012,02,26,15,10,4.60
2012,02,26,15,11,4.60
2012,02,26,15,12,4.70
2012,02,26,15,13,4.70
2012,02,26,15,14,4.70
2012,02,26,15,15,4.70
2012,02,26,15,16,4.70
2012,02,26,15,17,4.70
2012,02,26,15,18,4.70
2012,02,26,15,19,4.70
2012,02,26,15,20,4.70
2012,02,26,15,21,4.60
2012,02,26,15,22,4.60
2012,02,26,15,23,4.60
2012,02,26,15,24,4.60
2012,02,26,15,25,4.60
2012,02,26,15,26,4.60
2012,02,26,15,27,4.70
2012,02,26,15,28,4.60
2012,02,26,15,29,4.60
2012,02,26,15,30,4.50
2012,02,26,15,31,4.50
2012,02,26,15,32,4.40
2012,02,26,15,33,4.30
2012,02,26,15,34,4.30
2012,02,26,15,35,4.20
2012,02,26,15,36,4.20
2012,02,26,15,37,4.10
2012,02,26,15,38,4.10
2012,02,26,15,39,4.20
2012,02,26,15,40,4.20
2012,02,26,15,41,4.20
2012,02,26,15,42,4.20
2012,02,26,15,43,4.20
2012,02,26,15,44,4.30
2012,02,26,15,45,4.30
2012,02,26,15,46,4.30
2012,02,26,15,47,4.30
2012,02,26,15,48,4.20
2012,02,26,15,49,4.20
2012,02,26,15,50,4.10
2012,02,26,15,51,4.10
2012,02,26,15,52,4.10
2012,02,26,15,53,4.00
2012,02,26,15,54,4.00
2012,02,26,15,55,4.10
2012,02,26,15,56,4.10
2012,02,26,15,57,4.10
2012,02,26,15,58,4.10
2012,02,26,15,59,4.10
2012,02,26,16,00,4.00
2012,02,26,16,01,3.90
2012,02,26,16,02,3.90
2012,02,26,16,03,3.90
2012,02,26,16,04,3.90
2012,02,26,16,05,3.90
2012,02,26,16,06,3.80
2012,02,26,16,07,3.80
2012,02,26,16,08,3.80
2012,02,26,16,09,3.80
2012,02,26,16,10,3.70
2012,02,26,16,11,3.60
2012,02,26,16,12,3.60
2012,02,26,16,13,3.50
2012,02,26,16,14,3.50
2012,02,26,16,15,3.50
2012,02,26,16,16,3.50
2012,02,26,16,17,3.50
2012,02,26,16,18,3.50
2012,02,26,16,19,3.40
2012,02,26,16,20,3.40
2012,02,26,16,21,3.40
2012,02,26,16,22,3.40
2012,02,26,16,23,3.40
2012,02,26,16,24,3.30
2012,02,26,16,25,3.30
2012,02,26,16,26,3.20
2012,02,26,16,27,3.20
2012,02,26,16,28,3.20
2012,02,26,16,29,3.20
2012,02,26,16,30,3.10
2012,02,26,16,31,3.10
2012,02,26,16,32,3.10
2012,02,26,16,33,3.10
2012,02,26,16,34,3.10
2012,02,26,16,35,3.00
2012,02,26,16,36,3.00
2012,02,26,16,37,2.90
2012,02,26,16,38,2.90
2012,02,26,16,39,2.90
2012,02,26,16,40,2.80
2012,02,26,16,41,2.80
2012,02,26,16,42,2.80
2012,02,26,16,43,2.80
2012,02,26,16,44,2.80
2012,02,26,16,45,2.70
2012,02,26,16,46,2.70
2012,02,26,16,47,2.70
2012,02,26,16,48,2.70
2012,02,26,16,49,2.70
2012,02,26,16,50,2.70
2012,02,26,16,51,2.70
2012,02,26,16,52,2.70
2012,02,26,16,53,2.70
2012,02,26,16,54,2.70
2012,02,26,16,55,2.70
2012,02,26,16,56,2.70
2012,02,26,16,57,2.70
2012,02,26,16,58,2.60
2012,02,26,16,59,2.60
2012,02,26,17,00,2.60
2012,02,26,17,01,2.60
2012,02,26,17,02,2.60
2012,02,26,17,03,2.60
2012,02,26,17,04,2.60
2012,02,26,17,05,2.60
2012,02,26,17,06,2.60
2012,02,26,17,07,2.60
2012,02,26,17,08,2.60
2012,02,26,17,09,2.60
2012,02,26,17,10,2.60
2012,02,26,17,11,2.60
2012,02,26,17,12,2.60
2012,02,26,17,13,2.60
2012,02,26,17,14,2.60
2012,02,26,17,15,2.60
2012,02,26,17,16,2.60
2012,02,26,17,17,2.60
2012,02,26,17,18,2.60
2012,02,26,17,19,2.60
2012,02,26,17,20,2.60
2012,02,26,17,21,2.60
2012,02,26,17,22,2.60
2012,02,26,17,23,2.60
2012,02,26,17,24,2.60
2012,02,26,17,25,2.60
2012,02,26,17,26,2.60
2012,02,26,17,27,2.60
2012,02,26,17,28,2.60
2012,02,26,17,29,2.60
2012,02,26,17,30,2.60
2012,02,26,17,31,2.60
2012,02,26,17,32,2.60
2012,02,26,17,33,2.60
2012,02,26,17,34,2.60
2012,02,26,17,35,2.60
2012,02,26,17,36,2.60
2012,02,26,17,37,2.60
2012,02,26,17,38,2.60
2012,02,26,17,39,2.60
2012,02,26,17,40,2.60
2012,02,26,17,41,2.60
2012,02,26,17,42,2.60
2012,02,26,17,43,2.60
2012,02,26,17,44,2.60
2012,02,26,17,45,2.60
2012,02,26,17,46,2.60
2012,02,26,17,47,2.60
2012,02,26,17,48,2.60
2012,02,26,17,49,2.60
2012,02,26,17,50,2.60
2012,02,26,17,51,2.60
2012,02,26,17,52,2.60
2012,02,26,17,53,2.60
2012,02,26,17,54,2.60
2012,02,26,17,55,2.60
2012,02,26,17,56,2.60
2012,02,26,17,57,2.60
2012,02,26,17,58,2.60
2012,02,26,17,59,2.60
2012,02,26,18,00,2.50
2012,02,26,18,01,2.50
2012,02,26,18,02,2.50
2012,02,26,18,03,2.50
2012,02,26,18,04,2.40
2012,02,26,18,05,2.40
2012,02,26,18,06,2.40
2012,02,26,18,07,2.40
2012,02,26,18,08,2.40
2012,02,26,18,09,2.30
2012,02,26,18,10,2.30